Change the Weather History Date:

Saturday, June 29, 2013

  Actual Average Record
Temperature  
Mean Temperature 75 °F 63 °F  
Max Temperature 96 °F 78 °F 96 °F (2013)
Min Temperature 54 °F 48 °F 41 °F (2014)
Degree Days  
Heating Degree Days 0 3  
Month to date heating degree days 117 168  
Since 1 June heating degree days 117 168  
Since 1 July heating degree days 7801 8126  
Cooling Degree Days 10 1  
Month to date cooling degree days 48 17  
Year to date cooling degree days 50 21  
Since 1 June cooling degree days 48 17  
Growing Degree Days 24 (Base 50)    
Moisture  
Dew Point 49 °F    
Average Humidity 48    
Maximum Humidity 77    
Minimum Humidity 19    
Precipitation  
Precipitation T in 0.01 in 0.19 in (2010)
Month to date precipitation 0.23 1.35  
Year to date precipitation 4.48 7.22  
Sea Level Pressure  
Sea Level Pressure 30.02 in    
Wind  
Wind Speed 6 mph (NE)    
Max Wind Speed 20 mph    
Max Gust Speed 29 mph    
Visibility 10 miles    
Events Thunderstorm    
T = Trace of Precipitation, MM = Missing Value Source: NWS Daily Summary

Daily Weather History Graph

Daily Weather History Graph

Search for Another Location

Airport or City:

Trip Planner

Search our weather history database for the weather conditions in past years. The results will help you decide how hot, cold, wet, or windy it might be!

Date:

Astronomy

Jun. 29, 2013 Rise Set
Actual Time 5:48 AM MDT 9:13 PM MDT
Civil Twilight 5:11 AM MDT 9:49 PM MDT
Nautical Twilight 4:24 AM MDT 10:36 PM MDT
Astronomical Twilight 3:25 AM MDT 11:35 PM MDT
Moon 12:30 AM MDT (6/29) 1:18 PM MDT (6/29)
Length of Visible Light 16h 37m
Length of Day
15h 25m
Waning Gibbous, 55% of the Moon is Illuminated
Jun 29
Waning Gibbous
Jun 29
Last Quarter
Jul 8
New
Jul 15
First Quarter
Jul 22
Full

Hourly Weather History & Observations

Time (MDT) Temp. Dew Point Humidity Pressure Visibility Wind Dir Wind Speed Gust Speed Precip Events Conditions
12:53 AM 62.1 °F 53.1 °F 72% 30.05 in 10.0 mi ENE 5.8 mph - N/A   Clear
1:53 AM 61.0 °F 52.0 °F 72% 30.05 in 10.0 mi ENE 9.2 mph - N/A   Clear
2:53 AM 60.1 °F 48.9 °F 67% 30.05 in 10.0 mi ENE 9.2 mph - N/A   Clear
3:53 AM 57.9 °F 48.0 °F 70% 30.06 in 10.0 mi Calm Calm - N/A   Clear
4:53 AM 57.0 °F 48.0 °F 72% 30.05 in 10.0 mi NE 4.6 mph - N/A   Clear
5:53 AM 57.0 °F 46.9 °F 69% 30.06 in 10.0 mi NE 3.5 mph - N/A   Clear
6:53 AM 55.9 °F 48.0 °F 75% 30.07 in 10.0 mi Calm Calm - N/A   Clear
7:53 AM 62.1 °F 48.9 °F 62% 30.06 in 10.0 mi Calm Calm - N/A   Clear
8:53 AM 66.0 °F 51.1 °F 59% 30.06 in 10.0 mi Calm Calm - N/A   Clear
9:53 AM 75.0 °F 51.1 °F 43% 30.05 in 10.0 mi North 3.5 mph - N/A   Clear
10:53 AM 82.9 °F 46.0 °F 27% 30.03 in 10.0 mi Calm Calm - N/A   Clear
11:53 AM 86.0 °F 48.9 °F 28% 30.02 in 10.0 mi WNW 3.5 mph - N/A   Clear
12:53 PM 89.1 °F 48.0 °F 24% 30.01 in 10.0 mi WSW 6.9 mph - N/A   Clear
1:53 PM 91.9 °F 46.0 °F 21% 29.97 in 10.0 mi SSW 4.6 mph - N/A   Clear
2:53 PM 93.0 °F 48.9 °F 22% 29.94 in 10.0 mi South 4.6 mph - N/A   Clear
3:53 PM 93.9 °F 45.0 °F 18% 29.92 in 10.0 mi South 8.1 mph - N/A   Clear
4:53 PM 93.0 °F 48.9 °F 22% 29.92 in 10.0 mi WSW 9.2 mph - N/A   Clear
5:53 PM 84.9 °F 46.9 °F 27% 29.97 in 10.0 mi North 15.0 mph 26.5 mph 0.00 in Thunderstorm Clear
6:09 PM 84.2 °F 48.2 °F 29% 30.10 in 10.0 mi North 13.8 mph 20.7 mph N/A   Clear
6:53 PM 80.1 °F 48.9 °F 34% 29.99 in 10.0 mi NE 12.7 mph - N/A   Clear
7:10 PM 77.0 °F 51.8 °F 41% 30.11 in 10.0 mi East 9.2 mph 26.5 mph N/A   Partly Cloudy
7:53 PM 78.1 °F 48.9 °F 36% 29.97 in 10.0 mi East 16.1 mph 27.6 mph N/A   Partly Cloudy
8:53 PM 75.9 °F 48.0 °F 37% 29.97 in 10.0 mi ENE 13.8 mph 20.7 mph N/A   Clear
9:53 PM 72.0 °F 51.1 °F 48% 30.00 in 10.0 mi NNE 3.5 mph - N/A   Partly Cloudy
10:53 PM 73.9 °F 48.9 °F 41% 30.04 in 10.0 mi North 10.4 mph - N/A   Mostly Cloudy
11:53 PM 71.1 °F 50.0 °F 47% 30.03 in 10.0 mi East 9.2 mph 21.9 mph N/A   Overcast